CZ-6A DEB, 55198

Orbit data source: Space-Track

CZ-6A DEB, 55198 is space debris in SSO originally from a launch on Fri, 11 Nov 2022 UTC launched from the Taiyaun Space Center, China (TSC). Debris objects in space refer to the collection of defunct objects orbiting the Earth. Examples of debris include non-operational satellites, rocket bodies, and fragments generated from explosions, collisions, or faulty payload assembly.

Loading next visibility...
Identifier
55198, 2022-151VP
Orbit
SSO
Country
Flag of CNCN / PRC
Related business
Manufacturer
SAST
Mission
Spacecraft
Bus & Motor
Unknown
Mass
Unknown
Launch date (UTC)
2022-11-11 (4 years ago)
Launch vehicle
Unknown
Launch site
Taiyaun Space Center, China (TSC)
Object type
Payload
Rocket body
Debris
Shape & HBR
Unknown shape, 0.1 m
Radar Cross Section
Small (<0.1 m²)

Expand to show TLE details & history
Last TLE update: 2 days ago

TLE from 2 days ago
0 CZ-6A DEB
1 55198U 22151VP  26171.11388455  .00003704  00000-0  73894-3 0  9999
2 55198  98.6171 229.2863 0089997 297.5872  61.6208 14.60080109185079
Epoch: 2026-06-20T02:43Z
TLE epoch observation values (Epoch: 2026-06-20T02:43:59.625Z)
Latitude
-0.00001°
Longitude
-80.0453°
Altitude
666.081 km
Speed
7.54 km/s
True Right ascension
15h 17m 08s
True Declination
0° 00' 00"
Sunlit
Object was in full shadow at epoch
Visualization orbit readout
Latitude
Unknown
Longitude
Unknown
Altitude
Unknown
Speed
Unknown
Apparent Right ascension
Unknown
Apparent Declination
Unknown
Sunlit
N/A
Visualization observer readout
Local Sidereal Time
21:33:18
Azimuth
Unknown
Elevation
Unknown
Doppler factor
Unknown
Orbital elements
Apogee altitude
753.627 km
Perigee altitude
626.404 km
Semi-major axis
7,068.153 km
Eccentricity
0.009
Inclination
98.6171°
RAAN
229.2863°
Arg. of periapsis
297.5872°
True anomaly
62.53299°
Mean anomaly
61.6208°
Eccentric anomaly
62.07641°
Mean motion
3.65245 °/min
Orbital period
98.56 mins
BSTAR
0.00073894
Loading maneuver chart data...
Computing Atmospheric mass density...
Loading historical data...
Loading historical data...
Loading historical data...
Loading historical data...
Loading historical data...
Loading historical data...
Loading historical data...

Documentation

Showing up to 5 results
|